AD5L Weather Reports


Display with metric or nautical units.
time (UTC)temp
F
wind
direction
speed
MPH
gust
MPH
rain 1hr
in
rain 24hr
in
rain mn
in
humidity
%
barometer
mb
20260510072343 73 169 3.0 6.0 0.00 0.12 0.00 84 1011.7
20260510071324 74 146 3.0 8.0 0.00 0.12 0.00 83 1011.6
20260510070341 74 153 2.0 6.0 0.00 0.12 0.00 83 1011.6
20260510065350 74 146 2.0 7.0 0.00 0.12 0.00 82 1011.4
20260510064331 74 145 2.0 7.0 0.00 0.12 0.00 82 1011.3
20260510063351 74 110 3.0 6.0 0.00 0.12 0.00 81 1011.3
20260510062331 74 112 3.0 7.0 0.00 0.12 0.00 80 1011.3
20260510061351 74 146 2.0 7.0 0.00 0.12 0.00 80 1011.4
20260510060329 74 149 1.0 5.0 0.00 0.12 0.00 81 1011.4
20260510055340 74 158 1.0 5.0 0.00 0.12 0.00 81 1011.3
20260510054332 74 184 2.0 5.0 0.00 0.12 0.00 84 1011.3
20260510053340 74 141 1.0 4.0 0.00 0.12 0.00 87 1011.2
20260510052331 73 128 0.0 3.0 0.00 0.12 0.00 89 1011.2
20260510051338 73 145 0.0 2.0 0.00 0.12 0.00 91 1011.3
20260510050328 73 143 0.0 1.0 0.00 0.12 0.00 91 1011.3
20260510045340 73 143 0.0 1.0 0.00 0.12 0.12 90 1011.3
20260510044330 73 143 0.0 1.0 0.00 0.12 0.12 89 1011.2
20260510043340 74 143 0.0 1.0 0.00 0.12 0.12 88 1011.2
20260510042331 74 143 0.0 1.0 0.00 0.12 0.12 88 1011.2
20260510041336 75 143 0.0 1.0 0.00 0.12 0.12 88 1011.2
20260510040326 75 143 0.0 0.0 0.00 0.12 0.12 86 1011.3
20260510035332 75 143 0.0 1.0 0.00 0.12 0.12 85 1011.1
20260510034323 76 143 0.0 1.0 0.00 0.12 0.12 85 1011.0
20260510033333 76 143 0.0 1.0 0.00 0.12 0.12 84 1011.0
20260510032344 76 143 0.0 0.0 0.00 0.12 0.12 83 1010.8
20260510031336 76 143 0.0 1.0 0.00 0.12 0.12 83 1010.8
20260510030347 76 143 0.0 1.0 0.00 0.12 0.12 83 1010.6
20260510025338 77 143 0.0 0.0 0.00 0.12 0.12 82 1010.5
20260510024349 77 143 0.0 0.0 0.00 0.12 0.12 82 1010.5
20260510023330 78 143 0.0 1.0 0.00 0.12 0.12 79 1010.2
20260510022349 79 143 0.0 1.0 0.00 0.12 0.12 77 1010.0
20260510021331 79 143 0.0 0.0 0.00 0.12 0.12 76 1009.9
20260510020323 80 143 0.0 1.0 0.00 0.12 0.12 76 1009.8
20260510015330 81 143 0.0 1.0 0.00 0.12 0.12 75 1009.5
20260510014340 81 145 1.0 4.0 0.00 0.12 0.12 75 1009.5
20260510013331 82 140 1.0 3.0 0.00 0.12 0.12 74 1009.3
20260510012322 82 130 1.0 3.0 0.00 0.12 0.12 73 1009.1
20260510011334 83 132 0.0 4.0 0.00 0.12 0.12 72 1009.2
20260510010324 84 123 1.0 5.0 0.00 0.12 0.12 71 1009.1
20260510005331 85 124 1.0 4.0 0.00 0.12 0.12 70 1009.1
20260510004338 86 116 1.0 4.0 0.00 0.12 0.12 68 1009.0
20260510003329 87 132 2.0 5.0 0.00 0.12 0.12 67 1008.9
20260510002340 87 127 1.0 7.0 0.00 0.12 0.12 65 1008.8
20260510001330 88 135 3.0 7.0 0.00 0.12 0.12 64 1008.7
20260510000341 89 129 2.0 7.0 0.00 0.12 0.12 63 1008.7
20260509235331 90 127 2.0 5.0 0.00 0.12 0.12 57 1008.5
20260509234339 92 82 1.0 4.0 0.00 0.12 0.12 55 1008.4
20260509233330 93 162 1.0 2.0 0.00 0.12 0.12 51 1008.3
20260509232339 93 212 1.0 3.0 0.00 0.12 0.12 52 1008.4
20260509231350 94 108 1.0 3.0 0.00 0.12 0.12 51 1008.3
20260509230341 94 259 0.0 1.0 0.00 0.12 0.12 47 1008.3
20260509225323 93 96 1.0 3.0 0.00 0.12 0.12 51 1008.5
20260509224341 94 111 1.0 3.0 0.00 0.12 0.12 49 1008.5
20260509223350 92 98 0.0 4.0 0.00 0.12 0.12 53 1008.4
20260509222332 91 58 2.0 4.0 0.00 0.12 0.12 55 1008.4
20260509221352 90 117 1.0 4.0 0.00 0.12 0.12 54 1008.4
20260509220331 91 150 3.0 5.0 0.00 0.12 0.12 54 1008.5
20260509215341 90 106 1.0 4.0 0.00 0.12 0.12 54 1008.6
20260509214331 90 129 1.0 6.0 0.00 0.12 0.12 55 1008.7
20260509213338 90 123 3.0 7.0 0.00 0.12 0.12 56 1008.7
20260509212327 90 70 2.0 4.0 0.00 0.12 0.12 54 1008.9
20260509211335 90 96 1.0 5.0 0.00 0.12 0.12 54 1009.0
20260509210325 89 115 2.0 4.0 0.00 0.12 0.12 56 1009.2
20260509205335 89 60 2.0 8.0 0.00 0.12 0.12 56 1009.2
20260509204342 89 68 0.0 6.0 0.00 0.12 0.12 56 1009.6
20260509203329 90 49 1.0 5.0 0.00 0.12 0.12 57 1009.7
20260509202340 91 266 0.0 4.0 0.00 0.12 0.12 51 1009.9
20260509201331 90 285 1.0 4.0 0.00 0.12 0.12 54 1010.2
20260509200342 89 95 2.0 4.0 0.00 0.12 0.12 55 1010.3
20260509195332 87 116 2.0 5.0 0.00 0.12 0.12 58 1010.3
20260509194323 86 70 3.0 5.0 0.00 0.12 0.12 64 1010.3
20260509193330 85 341 2.0 7.0 0.00 0.12 0.12 71 1010.2
20260509192338 85 18 3.0 6.0 0.00 0.12 0.12 75 1010.4
20260509191327 84 26 4.0 9.0 0.00 0.12 0.12 74 1010.5
20260509190339 83 75 2.0 7.0 0.00 0.12 0.12 71 1010.7
20260509185349 82 16 1.0 4.0 0.00 0.12 0.12 79 1011.1
20260509184331 81 47 2.0 3.0 0.00 0.12 0.12 83 1011.0
20260509183340 80 330 2.0 3.0 0.00 0.12 0.12 88 1011.2
20260509182331 78 56 0.0 2.0 0.00 0.12 0.12 98 1011.4
20260509181343 77 56 1.0 2.0 0.00 0.12 0.12 98 1011.4
20260509180332 76 56 0.0 2.0 0.00 0.12 0.12 99 1011.7
20260509175343 76 56 1.0 3.0 0.05 0.12 0.12 99 1011.7
20260509174324 76 18 2.0 5.0 0.12 0.12 0.12 99 1011.6
20260509173344 76 12 1.0 3.0 0.12 0.12 0.12 99 1011.9
20260509172326 75 88 0.0 2.0 0.12 0.12 0.12 99 1011.7
20260509171337 75 88 1.0 3.0 0.12 0.12 0.12 98 1012.1
20260509170328 76 129 0.0 2.0 0.12 0.12 0.12 97 1012.3
20260509165338 78 135 0.0 6.0 0.07 0.07 0.07 95 1012.1
20260509164327 83 160 2.0 7.0 0.00 0.00 0.00 77 1012.1
20260509163337 85 149 4.0 10.0 0.00 0.00 0.00 74 1011.8
20260509162341 88 129 5.0 8.0 0.00 0.00 0.00 72 1011.9
20260509161329 88 118 3.0 7.0 0.00 0.00 0.00 67 1011.8
20260509160339 87 144 1.0 5.0 0.00 0.00 0.00 68 1011.7
20260509155330 87 140 2.0 6.0 0.00 0.00 0.00 69 1011.7
20260509154334 85 147 2.0 5.0 0.00 0.00 0.00 73 1011.7
20260509153326 84 203 1.0 4.0 0.00 0.00 0.00 74 1011.5
20260509152338 84 20 1.0 5.0 0.00 0.00 0.00 74 1011.3
20260509151328 84 134 2.0 10.0 0.00 0.00 0.00 77 1011.3
20260509150338 83 169 4.0 10.0 0.00 0.00 0.00 79 1011.1
20260509145329 82 160 3.0 12.0 0.00 0.00 0.00 80 1011.0
20260509144338 81 233 5.0 10.0 0.00 0.00 0.00 81 1010.8
20260509143328 81 196 6.0 13.0 0.00 0.00 0.00 81 1010.5
20260509142339 80 245 7.0 12.0 0.00 0.00 0.00 83 1010.4
20260509141349 80 196 4.0 8.0 0.00 0.00 0.00 85 1010.5
20260509140338 79 214 3.0 7.0 0.00 0.00 0.00 87 1010.6
20260509135348 78 211 3.0 7.0 0.00 0.00 0.00 88 1010.6
20260509134340 77 221 2.0 7.0 0.00 0.00 0.00 90 1010.7
20260509133350 77 171 1.0 9.0 0.00 0.00 0.00 91 1010.4
20260509132329 76 149 3.0 6.0 0.00 0.00 0.00 92 1010.0
20260509131349 74 231 3.0 6.0 0.00 0.00 0.00 93 1010.5
20260509130327 74 256 1.0 3.0 0.00 0.00 0.00 95 1010.4
20260509125338 73 328 1.0 3.0 0.00 0.00 0.00 96 1010.3
20260509124329 72 250 2.0 5.0 0.00 0.00 0.00 97 1010.5
20260509123339 71 221 2.0 5.0 0.00 0.00 0.00 98 1010.7
20260509122329 71 250 2.0 4.0 0.00 0.00 0.00 98 1010.9
20260509121338 71 144 0.0 2.0 0.00 0.00 0.00 98 1010.9
20260509120327 71 99 0.0 1.0 0.00 0.00 0.00 98 1011.1
20260509115339 71 257 0.0 1.0 0.00 0.00 0.00 98 1011.3
20260509114325 71 257 2.0 4.0 0.00 0.00 0.00 98 1011.4
20260509113331 71 327 0.0 1.0 0.00 0.00 0.00 98 1011.9
20260509112342 71 327 0.0 1.0 0.00 0.00 0.00 98 1011.8
20260509111331 71 327 0.0 1.0 0.00 0.00 0.00 98 1011.9
20260509110339 71 327 0.0 1.0 0.00 0.00 0.00 98 1012.0
20260509105330 71 328 0.0 1.0 0.00 0.00 0.00 98 1012.3
20260509104340 71 327 2.0 4.0 0.00 0.00 0.00 98 1012.4
20260509103330 71 332 1.0 4.0 0.00 0.00 0.00 98 1012.6
20260509102321 71 356 3.0 5.0 0.00 0.00 0.00 98 1012.4
20260509101331 71 347 0.0 1.0 0.00 0.00 0.00 98 1012.3
20260509100341 71 347 1.0 4.0 0.00 0.00 0.00 98 1012.1
20260509095332 71 340 1.0 5.0 0.00 0.00 0.00 98 1011.9
20260509094343 71 35 3.0 6.0 0.00 0.00 0.00 98 1011.6
20260509093325 71 334 3.0 5.0 0.00 0.00 0.00 98 1011.6
20260509092341 71 151 0.0 1.0 0.00 0.00 0.00 98 1011.2
20260509091351 71 151 0.0 0.0 0.00 0.00 0.00 97 1010.7
20260509090329 71 151 0.0 0.0 0.00 0.00 0.00 97 1010.7
20260509085350 71 151 0.0 0.0 0.00 0.00 0.00 97 1010.8
20260509084332 72 151 0.0 0.0 0.00 0.00 0.00 97 1010.9
20260509083322 72 139 0.0 0.0 0.00 0.00 0.00 96 1011.2
20260509082333 72 139 0.0 0.0 0.00 0.00 0.00 96 1011.2
20260509081325 72 139 0.0 0.0 0.00 0.00 0.00 96 1011.3
20260509080336 72 139 0.0 0.0 0.00 0.00 0.00 96 1011.1
20260509075327 72 139 0.0 0.0 0.00 0.00 0.00 96 1011.3
20260509074334 73 139 0.0 0.0 0.00 0.00 0.00 96 1011.7
20260509073325 73 139 0.0 1.0 0.00 0.00 0.00 95 1011.7